MTN7400 KPVD-KMVY

Flight info

Callsign MTN7400
Flight time 0h 21m
Altitude 2500
Route /
Aircraft C208/L-VGDW/C

Departure

Time 2026-04-24 19:42
Airport Rhode Island T. F. Green International Airport (KPVD)

Arrival

Time 2026-04-24 20:03
Airport Martha's Vineyard Airport (KMVY)
Time Latitude Longitude Altitude Speed Heading
2026-04-24 19:38 41.72420 -71.42245 53 ft 4 kts 145°
2026-04-24 19:38 41.72377 -71.42243 53 ft 0 kts 225°
2026-04-24 19:39 41.72359 -71.42269 51 ft 9 kts 229°
2026-04-24 19:40 41.72328 -71.42321 52 ft 6 kts 259°
2026-04-24 19:40 41.72336 -71.42341 53 ft 0 kts 321°
2026-04-24 19:41 41.72522 -71.42536 50 ft 64 kts 321°
2026-04-24 19:41 41.72953 -71.42949 222 ft 82 kts 347°
2026-04-24 19:41 41.73462 -71.42576 438 ft 105 kts 54°
2026-04-24 19:41 41.73516 -71.41554 602 ft 123 kts 120°
2026-04-24 19:42 41.72715 -71.41031 673 ft 141 kts 161°
2026-04-24 19:42 41.71801 -71.40401 717 ft 153 kts 142°
2026-04-24 19:42 41.71034 -71.39383 805 ft 156 kts 123°
2026-04-24 19:42 41.70533 -71.38144 1202 ft 141 kts 109°
2026-04-24 19:43 41.70216 -71.36953 1693 ft 132 kts 105°
2026-04-24 19:43 41.69907 -71.35814 2128 ft 128 kts 109°
2026-04-24 19:43 41.69576 -71.34727 2463 ft 131 kts 109°
2026-04-24 19:43 41.69175 -71.33516 2480 ft 152 kts 112°
2026-04-24 19:44 41.68692 -71.32195 2480 ft 163 kts 114°
2026-04-24 19:44 41.68158 -71.30829 2477 ft 167 kts 116°
2026-04-24 19:44 41.67601 -71.29453 2478 ft 169 kts 117°
2026-04-24 19:44 41.67032 -71.28074 2473 ft 170 kts 117°
2026-04-24 19:45 41.66449 -71.26692 2483 ft 172 kts 118°
2026-04-24 19:45 41.65844 -71.25320 2458 ft 171 kts 126°
2026-04-24 19:45 41.65074 -71.24142 2466 ft 170 kts 131°
2026-04-24 19:45 41.64249 -71.22984 2472 ft 170 kts 133°
2026-04-24 19:46 41.63421 -71.21868 2490 ft 172 kts 134°
2026-04-24 19:46 41.62569 -71.20741 2477 ft 172 kts 134°
2026-04-24 19:46 41.61715 -71.19624 2453 ft 171 kts 134°
2026-04-24 19:46 41.60868 -71.18517 2454 ft 169 kts 134°
2026-04-24 19:47 41.60025 -71.17423 2459 ft 169 kts 134°
2026-04-24 19:47 41.59464 -71.16697 2461 ft 169 kts 134°
2026-04-24 19:47 41.58613 -71.15611 2463 ft 170 kts 135°
2026-04-24 19:47 41.57467 -71.14161 2461 ft 170 kts 135°
2026-04-24 19:48 41.56899 -71.13438 2461 ft 170 kts 134°
2026-04-24 19:48 41.56061 -71.12335 2463 ft 169 kts 133°
2026-04-24 19:48 41.54569 -71.09918 2462 ft 169 kts 124°
2026-04-24 19:49 41.53222 -71.07348 2464 ft 169 kts 123°
2026-04-24 19:49 41.51897 -71.04767 2462 ft 169 kts 122°
2026-04-24 19:50 41.49914 -71.00881 2482 ft 170 kts 122°
2026-04-24 19:50 41.49251 -70.99573 2472 ft 169 kts 122°
2026-04-24 19:51 41.47946 -70.96968 2482 ft 169 kts 122°
2026-04-24 19:51 41.47296 -70.95689 2479 ft 168 kts 122°
2026-04-24 19:52 41.45994 -70.93097 2478 ft 168 kts 122°
2026-04-24 19:52 41.45366 -70.91783 2484 ft 168 kts 120°
2026-04-24 19:52 41.44760 -70.90450 2483 ft 168 kts 120°
2026-04-24 19:52 41.44152 -70.89122 2482 ft 168 kts 119°
2026-04-24 19:53 41.43544 -70.87793 2497 ft 167 kts 117°
2026-04-24 19:53 41.42941 -70.86465 2507 ft 166 kts 114°
2026-04-24 19:53 41.42042 -70.83655 2494 ft 164 kts 107°
2026-04-24 19:54 41.41637 -70.82236 2494 ft 164 kts 107°
2026-04-24 19:54 41.41241 -70.80811 2491 ft 163 kts 106°
2026-04-24 19:54 41.40843 -70.79397 2491 ft 163 kts 106°
2026-04-24 19:54 41.40462 -70.77979 2492 ft 163 kts 106°
2026-04-24 19:55 41.40209 -70.77039 2491 ft 163 kts 106°
2026-04-24 19:55 41.39698 -70.75168 2488 ft 162 kts 106°
2026-04-24 19:55 41.39313 -70.73751 2493 ft 162 kts 106°
2026-04-24 19:55 41.38923 -70.72338 2494 ft 162 kts 106°
2026-04-24 19:56 41.38531 -70.70928 2495 ft 163 kts 107°
2026-04-24 19:56 41.38151 -70.69507 2497 ft 163 kts 106°
2026-04-24 19:56 41.37767 -70.68084 2497 ft 164 kts 106°
2026-04-24 19:56 41.37391 -70.66645 2504 ft 165 kts 106°
2026-04-24 19:57 41.37018 -70.65198 2491 ft 165 kts 106°
2026-04-24 19:57 41.36636 -70.63770 2487 ft 162 kts 101°
2026-04-24 19:57 41.36643 -70.62295 2413 ft 160 kts 74°
2026-04-24 19:57 41.37072 -70.60971 2486 ft 152 kts 56°
2026-04-24 19:58 41.37776 -70.59921 2475 ft 155 kts 40°
2026-04-24 19:58 41.38709 -70.59200 2474 ft 157 kts 22°
2026-04-24 19:58 41.39754 -70.58889 2579 ft 154 kts
2026-04-24 19:58 41.40808 -70.59238 2335 ft 174 kts 321°
2026-04-24 19:59 41.41408 -70.60609 2067 ft 167 kts 297°
2026-04-24 19:59 41.41758 -70.62062 1733 ft 171 kts 281°
2026-04-24 19:59 41.41350 -70.63474 1266 ft 165 kts 214°
2026-04-24 19:59 41.40403 -70.63312 837 ft 145 kts 125°
2026-04-24 20:00 41.39862 -70.62150 179 ft 146 kts 122°
2026-04-24 20:00 41.39127 -70.61292 134 ft 152 kts 178°
2026-04-24 20:00 41.38361 -70.62100 513 ft 135 kts 254°
2026-04-24 20:00 41.38264 -70.63411 375 ft 152 kts 258°
2026-04-24 20:01 41.38141 -70.64817 511 ft 144 kts 267°
2026-04-24 20:01 41.38298 -70.66090 631 ft 141 kts 309°
2026-04-24 20:01 41.39067 -70.66637 696 ft 121 kts 18°
2026-04-24 20:01 41.39754 -70.65994 676 ft 126 kts 45°
2026-04-24 20:02 41.40201 -70.65462 515 ft 134 kts 45°
2026-04-24 20:02 41.40842 -70.64192 572 ft 115 kts 81°
2026-04-24 20:02 41.40594 -70.63219 372 ft 120 kts 128°
2026-04-24 20:02 41.40043 -70.62455 249 ft 103 kts 132°
2026-04-24 20:03 41.39677 -70.61819 86 ft 76 kts 120°
2026-04-24 20:03 41.39381 -70.61364 71 ft 49 kts 132°
2026-04-24 20:03 41.39258 -70.61176 71 ft 14 kts 134°
2026-04-24 20:03 41.39209 -70.61134 68 ft 10 kts 198°
2026-04-24 20:04 41.39123 -70.61229 66 ft 19 kts 221°
2026-04-24 20:04 41.39044 -70.61279 67 ft 8 kts 139°
2026-04-24 20:04 41.39034 -70.61264 70 ft 2 kts 130°
2026-04-24 20:04 41.39010 -70.61225 63 ft 0 kts 130°